Lexington Weather

Lexington, Massachusetts, USA

41°F
11/27/2020 3:28am 
  • Lexington Conditions: Fog, Overcast
  • Temperature: 41.0°F / 5.0°CWarmer 1.3°F than last hour.
  • Dew Point: 40.3°FIncreased 1.3°Fsince last hour.
  • Relative Humidity: 97
  • Wind: Calm, 10-min avg: Calm, gust: None
  • Barometer: 29.97 in Steady
  • Visibility: ¼ mile
  • Rain Today: 0.00 in
  •   
Southeast Middlesex County - Special Weather Statement
 - SEE ALL NEARBY ALERTS -

Regional Weather Roundup
for Boston / Norton, MA

        
000
ASUS41 KBOX 221805
RWRBOX

REGIONAL WEATHER ROUNDUP
NATIONAL WEATHER SERVICE BOSTON/NORTON MA
100 PM EST SUN NOV 22 2020

NOTE:  "FAIR" INDICATES FEW OR NO CLOUDS BELOW 12,000 FEET WITH NO 
SIGNIFICANT WEATHER AND/OR OBSTRUCTIONS TO VISIBILITY.

MAZALL-221900-
EASTERN MASSACHUSETTS
  
CITY           SKY/WX    TMP DP  RH WIND       PRES   REMARKS
BOSTON         CLOUDY    43  34  70 NE14      30.52F                  
6HR MIN TEMP:  36; 6HR MAX TEMP:  43;                                

BEVERLY        CLOUDY    43  29  57 E8        30.52S                  
LAWRENCE       CLOUDY    42  28  57 NE10      30.54F                  
BEDFORD        CLOUDY    42  30  62 E9        30.50F                  
BLUE HILL        N/A     42  34  73 E9        30.47F                  
NORWOOD        CLOUDY    46  34  62 E9        30.50F                  
MARSHFIELD     CLOUDY    46  37  71 E13       30.50F                  
PLYMOUTH       CLOUDY    46  36  68 E8        30.48F                  
TAUNTON        CLOUDY    49  36  61 E7        30.48F                  
NEW BEDFORD    CLOUDY    49  38  65 E9        30.46F                  
$$

MAZALL-221900-
CAPE COD AND THE ISLANDS
  
CITY           SKY/WX    TMP DP  RH WIND       PRES   REMARKS
FALMOUTH       CLOUDY    48  37  66 E7        30.48F                  
HYANNIS        CLOUDY    48  38  68 NE8       30.46F                  
CHATHAM        CLOUDY    49  37  63 NE12      30.49F                  
PROVINCETOWN   CLOUDY    46  36  68 E13       30.50F                  
NANTUCKET      CLOUDY    53  43  68 E15G21    30.46F                  
MARTHAS VNYRD  CLOUDY    51  41  68 NE18      30.45F                  
$$
 
MAZALL-221900-
CENTRAL AND WESTERN MASSACHUSETTS
  
CITY           SKY/WX    TMP DP  RH WIND       PRES   REMARKS
WORCESTER      CLOUDY    38  29  70 E7        30.47S                  
6HR MIN TEMP:  32; 6HR MAX TEMP:  40;                                

FITCHBURG      CLOUDY    39  27  62 NE5       30.53S                  
ORANGE         CLOUDY    40  29  64 E8        30.50S                  
SPRINGFIELD    CLOUDY    44  30  58 E8        30.46F                  
WESTFIELD      CLOUDY    41  29  62 N7        30.47F                  
NORTH ADAMS    CLOUDY    39  26  59 E13G20    30.46F WCI  31          
PITTSFIELD     CLOUDY    37  29  72 E7        30.41F WCI  32          
$$
 
RIZALL-221900-
RHODE ISLAND
  
CITY           SKY/WX    TMP DP  RH WIND       PRES   REMARKS
PROVIDENCE     CLOUDY    48  36  63 E10       30.47F                  
6HR MIN TEMP:  37; 6HR MAX TEMP:  48;                                

NEWPORT        CLOUDY    48  38  68 E12       30.46F                  
BLOCK ISLAND   CLOUDY    49  41  74 E15       30.44F                  
SMITHFIELD     CLOUDY    45  37  73 NE5       30.48R                  
WESTERLY       CLOUDY    48  38  68 E8        30.45F                  
$$
 
CTZALL-221900-
CONNECTICUT
  
CITY           SKY/WX    TMP DP  RH WIND       PRES   REMARKS
BRADLEY INTL   LGT RAIN  43  30  60 N6        30.46F                  
6HR MIN TEMP:  30; 6HR MAX TEMP:  43; 6HR PCP: TRACE;                

HARTFORD       CLOUDY    44  29  55 N6        30.46F                  
BRIDGEPORT     CLOUDY    47  34  60 NE9       30.42F                  
DANBURY        CLOUDY    43  32  65 E7        30.42F                  
GROTON         CLOUDY    49  39  68 NE13      30.43F                  
NEW HAVEN      CLOUDY    49  37  63 NE6       30.42F                  
CHESTER        CLOUDY    46  36  66 E7        30.43F                  
MERIDEN        CLOUDY    43  29  57 N6        30.45F                  
WILLIMANTIC    CLOUDY    46  34  62 E10       30.46F                  
OXFORD         CLOUDY    40  30  67 NE10      30.42F                  
$$

MEZ002-015-021-024-NHZ003-005-008-011-012-014-VTZ005-008-221900-
NORTHERN NEW ENGLAND
  
CITY           SKY/WX    TMP DP  RH WIND       PRES   REMARKS
PORTLAND ME    PTSUNNY   38  28  67 E6        30.56F                  
6HR MIN TEMP:  27; 6HR MAX TEMP:  40;                                

BANGOR ME      PTSUNNY   37  16  42 CALM      30.57F                  
CONCORD NH     CLOUDY    38  21  50 E6        30.54R                  
MANCHESTER NH  CLOUDY    40  24  53 NE6       30.52S                  
NASHUA NH      CLOUDY    40  27  59 VRB5      30.54S                  
PORTSMOUTH NH  CLOUDY    40  24  52 E7        30.52F                  
JAFFREY NH     CLOUDY    36  24  62 VRB3      30.49S                  
KEENE NH       CLOUDY    38  26  62 VRB5      30.51S                  
BURLINGTON VT  CLOUDY    38  20  48 S6        30.45                   
MT. WASHINGTON NOT AVBL                                               
$$

NYZ052-076-221900-
EASTERN NEW YORK
  
CITY           SKY/WX    TMP DP  RH WIND       PRES   REMARKS
ALBANY         FLURRIES  35  27  72 E3        30.45F                  
6HR MIN TEMP:  23; 6HR MAX TEMP:  35; 6HR PCP: TRACE;                

NEW YORK CITY  CLOUDY    50  39  66 NE14      30.39F                  
6HR MIN TEMP:  47; 6HR MAX TEMP:  50;                                

$$
 
ANZALL-221900-
MARINE OBSERVATIONS
  
STATION/POSITION TIME  TEMP    WIND        PRES    VSBY  WAVE
                       AIR SEA DIR/SP/G                  HT/PER
                 (UTC) (F)     (DEG/KT/KT) (MB)    (MI)  (FT/S)
BOSTON BUOY      1750   44 51   80/ 14/ 16 1033.6F         4/ 6
BUZZARDS BAY     1700           70/ 18/ 19 1032.6F
NANTUCKET SOUND  1750      51   70/ 14/ 17   N/A           2/ 3
MASS BAY-STELLWA NOT AVBL
ISLE OF SHOALS   1700   40      50/ 12/ 14 1033.8F
S OF BLOCK IS    1726      58                N/A           5/ 6
$$

......................KEY.........................
  SKY/WX - SKY CONDITION/PRESENT WEATHER
  TMP    - TEMPERATURE IN FAHRENHEIT
  DWPT   - DEWPOINT IN FAHRENHEIT
  RH     - RELATIVE HUMIDITY IN PERCENT
  WIND   - DIRECTION AND SPEED IN MPH
  PRES   - MEAN SEA LEVEL PRESSURE IN INCHES OF HG
  WCI    - WIND CHILL INDEX
  VSB    - VISIBILITY IN MILES
  HX     - HEAT INDEX
  TC     - TEMPERATURE IN CELSIUS
  VRB    - VARIABLE WIND DIRECTION
  N/A    - NOT AVAILABLE
  
      

Other recent Regional Weather Roundups

Fri Nov 27, 12:04am

Thu Nov 26, 11:04pm

Thu Nov 26, 10:04pm

Thu Nov 26, 9:04pm

Thu Nov 26, 8:04pm

Thu Nov 26, 7:04pm

Thu Nov 26, 6:04pm

Thu Nov 26, 5:04pm

Thu Nov 26, 4:04pm

Thu Nov 26, 2:04pm

Thu Nov 26, 1:04pm

Thu Nov 26, 12:04pm

Thu Nov 26, 11:04am

Thu Nov 26, 10:04am

Thu Nov 26, 9:04am

Thu Nov 26, 8:04am

Thu Nov 26, 7:04am

Thu Nov 26, 6:04am

Thu Nov 26, 5:04am

Thu Nov 26, 4:04am

Thu Nov 26, 3:04am

Thu Nov 26, 2:04am

Thu Nov 26, 1:04am

Thu Nov 26, 12:04am

Wed Nov 25, 11:04pm

Wed Nov 25, 10:04pm

Wed Nov 25, 9:04pm

Wed Nov 25, 8:04pm

Wed Nov 25, 7:04pm

Wed Nov 25, 6:04pm

Wed Nov 25, 5:04pm

Wed Nov 25, 4:04pm

Wed Nov 25, 3:05pm

Wed Nov 25, 2:04pm

Wed Nov 25, 1:04pm

Wed Nov 25, 12:05pm

Wed Nov 25, 11:04am

Wed Nov 25, 10:04am

Wed Nov 25, 9:04am

Wed Nov 25, 8:04am

Wed Nov 25, 7:04am

Wed Nov 25, 6:04am

Wed Nov 25, 5:04am

Wed Nov 25, 4:04am

Wed Nov 25, 3:04am

Wed Nov 25, 2:04am

Wed Nov 25, 1:04am

Wed Nov 25, 12:04am

Tue Nov 24, 11:04pm

Tue Nov 24, 10:04pm

Tue Nov 24, 9:04pm

Tue Nov 24, 8:04pm

Tue Nov 24, 7:04pm

Tue Nov 24, 6:04pm

Tue Nov 24, 5:04pm

Tue Nov 24, 4:05pm

Tue Nov 24, 3:05pm

Tue Nov 24, 2:05pm

Tue Nov 24, 1:05pm

Tue Nov 24, 12:04pm

Tue Nov 24, 11:04am

Tue Nov 24, 10:04am

Tue Nov 24, 9:04am

Tue Nov 24, 8:04am

Tue Nov 24, 7:04am

Tue Nov 24, 6:04am

Tue Nov 24, 5:04am

Tue Nov 24, 4:05am

Tue Nov 24, 3:04am

Tue Nov 24, 2:04am

Tue Nov 24, 1:04am

Tue Nov 24, 12:05am

Mon Nov 23, 11:04pm

Mon Nov 23, 10:04pm

Mon Nov 23, 9:04pm

Mon Nov 23, 8:04pm

Mon Nov 23, 7:04pm

Mon Nov 23, 6:04pm

Mon Nov 23, 5:04pm

Mon Nov 23, 4:04pm

Mon Nov 23, 3:04pm

Mon Nov 23, 2:04pm

Mon Nov 23, 1:04pm

Mon Nov 23, 12:04pm

Mon Nov 23, 11:04am

Mon Nov 23, 10:04am

Mon Nov 23, 9:04am

Mon Nov 23, 8:05am

Mon Nov 23, 7:04am

Mon Nov 23, 6:04am

Mon Nov 23, 5:04am

Mon Nov 23, 4:04am

Mon Nov 23, 3:04am

Mon Nov 23, 2:04am

Mon Nov 23, 1:04am

Mon Nov 23, 12:05am

Sun Nov 22, 11:04pm

Sun Nov 22, 10:04pm

Sun Nov 22, 9:04pm

Sun Nov 22, 8:05pm

Sun Nov 22, 7:04pm

Sun Nov 22, 6:04pm

Sun Nov 22, 5:04pm

Sun Nov 22, 4:04pm

Sun Nov 22, 3:04pm

Sun Nov 22, 2:04pm

Sun Nov 22, 12:04pm

Sun Nov 22, 11:04am

Sun Nov 22, 10:05am

Sun Nov 22, 9:04am

Sun Nov 22, 8:04am

Sun Nov 22, 7:04am

Sun Nov 22, 6:04am

Sun Nov 22, 5:04am

Sun Nov 22, 4:04am

Sun Nov 22, 3:04am

Sun Nov 22, 2:04am

Sun Nov 22, 1:04am

Sun Nov 22, 12:04am

Sat Nov 21, 11:04pm

Sat Nov 21, 10:04pm

Sat Nov 21, 9:04pm

Sat Nov 21, 8:05pm

Sat Nov 21, 7:04pm

Sat Nov 21, 6:04pm

Sat Nov 21, 5:04pm

Sat Nov 21, 4:05pm

Sat Nov 21, 3:04pm

Sat Nov 21, 2:04pm

Sat Nov 21, 1:05pm

Sat Nov 21, 12:04pm

Sat Nov 21, 11:04am

Sat Nov 21, 10:04am

Sat Nov 21, 9:04am

Sat Nov 21, 8:04am

Sat Nov 21, 7:04am

Sat Nov 21, 6:04am

Sat Nov 21, 5:04am

Sat Nov 21, 4:04am

Sat Nov 21, 3:04am

Sat Nov 21, 2:04am

Sat Nov 21, 1:04am

Sat Nov 21, 12:04am

Fri Nov 20, 11:04pm

Fri Nov 20, 10:04pm

Fri Nov 20, 9:04pm

Fri Nov 20, 8:04pm

Fri Nov 20, 7:04pm

Fri Nov 20, 6:04pm

Fri Nov 20, 5:04pm

Fri Nov 20, 4:05pm

Fri Nov 20, 3:05pm

Fri Nov 20, 2:04pm

Fri Nov 20, 1:04pm

Fri Nov 20, 12:04pm

Fri Nov 20, 11:04am

Fri Nov 20, 10:04am

Fri Nov 20, 9:04am

Fri Nov 20, 8:04am

Fri Nov 20, 7:04am

Fri Nov 20, 6:04am

Fri Nov 20, 5:04am

Fri Nov 20, 4:04am

Meta data:

ID: 5f4e3b58-de90-40ab-9dd6-7f2f8dd007e6
Link: https://api.weather.gov/products/5f4e3b58-de90-40ab-9dd6-7f2f8dd007e6